Location: Obersdorf
(47.4079°N, 10.2781°E)
Time: 06:51:37
(UTC+01:00)

AO-109 - Pass Details

Date: 03 December 2021
Orbit: 478 x 515 km, 60.7° (Epoch: 22 January)

Event Time Altitude Azimuth Distance (km) Brightness Sun altitude
Exits shadow 04:28:36 12° 60° (ENE) 1,544 ? -32.8°
Drops below altitude 10° 04:29:03 10° 66° (ENE) 1,657 ? -32.8°
Sets 04:31:46 0° 87° (E) 2,534 ? -32.3°
